Content
SEND FEEDBACK

Daily
Averages
Monthly
Summary
United States of America

TAMUNING, GUAM


Home > North America > United States > Guam
Elevation: 250 feet     Latitude: 13 29N     Longitude: 144 47E

WEATHER
 
SELECT A DAY
Number of Records: 342,166;   Date Range: 1/1/95 - 8/12/14
 
SHARE

PRINT THIS DATA

[ ← Previous Day ]
WEATHER ALMANAC - APRIL 24, 2013
[ Next Day → ]
[ °C ]   °F
Weather ElementAverageHighLow
Temperature79.3 °F86 °F (12:55 pm)75.2 °F (7:08 am)
Dewpoint73.3 °F75.2 °F (7:51 pm)71.4 °F (5:55 pm)
Humidity82 %94 % (7:08 am)67 % (12:55 pm)
Barometer29.89 in29.94 in (8:55 am)29.83 in (4:55 pm)
Wind Speed15.8 mph23 mph (7:15 am)
Wind Gust31.1 mph (7:15 am)
Weather ElementAverage
Visibility9 mi
Wind DirectionENE (68.7 °)

Weather ElementTotal
Precipitation0.04 in
Cooling Degree Days15.6 (Base 65)
Growing Degree Days30.6 (Base 50)
Averaged from 76 records on April 24, 2013
WEATHER CONDITIONS BREAKOUT
WIND DIRECTION BREAKOUT
WEATHER BY HOUR - APRIL 24, 2013
[ °C ]   °F
Local TimeTemperatureDewpointHumidityBarometerVisibilityWind DirectionWind SpeedGust SpeedPrecipitationEventsConditions
1:55 AM78.1 °F71.8 °F81 %29.91 in10.0 miENE (60°)13.8 mphPartly Cloudy
2:37 AM78.8 °F71.6 °F78 %29.90 in10.0 miENE (60°)11.5 mphMostly Cloudy
2:55 AM78.4 °F71.8 °F80 %29.90 in10.0 miENE (60°)13.8 mphMostly Cloudy
3:08 AM78.8 °F71.6 °F78 %29.89 in10.0 miENE (60°)13.8 mphScattered Clouds
3:53 AM78.8 °F73.4 °F83 %29.88 in10.0 miNE (50°)12.7 mphMostly Cloudy
3:55 AM78.4 °F73.0 °F83 %29.88 in10.0 miNE (50°)12.7 mphMostly Cloudy
3:59 AM78.8 °F73.4 °F83 %29.88 in10.0 miNE (50°)12.7 mphScattered Clouds
4:01 AM78.8 °F73.4 °F83 %29.88 in10.0 miNE (50°)12.7 mphMostly Cloudy
4:08 AM78.8 °F73.4 °F83 %29.88 in10.0 miNE (50°)12.7 mphRainLight Rain
4:17 AM78.8 °F73.4 °F83 %29.88 in10.0 miNE (50°)16.1 mphMostly Cloudy
4:19 AM78.8 °F73.4 °F83 %29.88 in10.0 miNE (50°)13.8 mphMostly Cloudy
4:55 AM78.4 °F72.1 °F81 %29.88 in10.0 miENE (60°)15.0 mph0.00 inScattered Clouds
5:55 AM78.6 °F72.5 °F81 %29.90 in10.0 miNE (50°)13.8 mphScattered Clouds
5:57 AM78.8 °F73.4 °F83 %29.90 in10.0 miNE (50°)13.8 mphMostly Cloudy
6:03 AM78.8 °F73.4 °F83 %29.90 in10.0 miNE (50°)12.7 mphScattered Clouds
6:09 AM78.8 °F71.6 °F78 %29.90 in10.0 miENE (60°)13.8 mphScattered Clouds
6:48 AM78.8 °F73.4 °F83 %29.91 in10.0 miENE (60°)15.0 mphMostly Cloudy
6:55 AM79.2 °F73.8 °F83 %29.91 in10.0 miENE (70°)18.4 mphMostly Cloudy
6:56 AM78.8 °F73.4 °F83 %29.91 in9.0 miENE (60°)17.3 mphRainLight Rain
7:04 AM77.0 °F73.4 °F89 %29.92 in5.0 miENE (70°)20.7 mph29.9 mphRainLight Rain
7:05 AM77.0 °F73.4 °F89 %29.92 in4.0 miENE (70°)21.9 mph29.9 mphRainLight Rain
7:08 AM75.2 °F73.4 °F94 %29.92 in4.0 miENE (60°)16.1 mphDrizzle
7:15 AM77.0 °F73.4 °F89 %29.93 in3.0 miEast (90°)23.0 mph31.1 mphRainRain
7:17 AM75.2 °F73.4 °F94 %29.93 in2.5 miEast (90°)20.7 mph31.1 mphRainRain
7:18 AM75.2 °F73.4 °F94 %29.93 in2.0 miEast (90°)19.6 mph31.1 mphRainRain
7:21 AM75.2 °F73.4 °F94 %29.93 in2.0 miEast (100°)21.9 mph31.1 mphRainLight Rain
7:22 AM75.2 °F73.4 °F94 %29.93 in2.0 miEast (90°)23.0 mph31.1 mphRainLight Rain
7:24 AM75.2 °F73.4 °F94 %29.93 in2.5 miEast (90°)20.7 mph27.6 mphRainLight Rain
7:25 AM75.2 °F73.4 °F94 %29.93 in3.0 miEast (90°)21.9 mph27.6 mphRainLight Rain
7:26 AM75.2 °F73.4 °F94 %29.93 in4.0 miEast (90°)20.7 mph26.5 mphOvercast
7:30 AM75.2 °F73.4 °F94 %29.93 in10.0 miEast (90°)17.3 mphOvercast
7:31 AM75.2 °F73.4 °F94 %29.93 in10.0 miEast (90°)17.3 mphOvercast
7:34 AM77.0 °F73.4 °F89 %29.93 in10.0 miEast (90°)16.1 mphMostly Cloudy
7:55 AM78.3 °F71.6 °F80 %29.93 in10.0 miEast (80°)15.0 mph0.04 inMostly Cloudy
8:55 AM81.5 °F73.9 °F78 %29.94 in10.0 miENE (70°)15.0 mphClear
9:55 AM82.8 °F72.9 °F72 %29.94 in10.0 miEast (80°)18.4 mphScattered Clouds
10:21 AM82.4 °F73.4 °F74 %29.94 in10.0 miENE (70°)18.4 mphMostly Cloudy
10:50 AM84.2 °F73.4 °F70 %29.93 in10.0 miEast (80°)18.4 mph23.0 mphScattered Clouds
10:55 AM84.9 °F74.5 °F71 %29.93 in10.0 miENE (70°)19.6 mph23.0 mphScattered Clouds
11:55 AM85.6 °F74.1 °F68 %29.91 in10.0 miENE (70°)20.7 mphMostly Cloudy
12:55 PM86.0 °F73.9 °F67 %29.88 in10.0 miEast (80°)18.4 mph24.2 mphMostly Cloudy
1:55 PM85.5 °F73.8 °F68 %29.86 in10.0 miEast (80°)17.3 mphScattered Clouds
2:42 PM84.2 °F73.4 °F70 %29.85 in10.0 miEast (80°)15.0 mphMostly Cloudy
2:55 PM84.6 °F73.9 °F70 %29.85 in10.0 miEast (80°)16.1 mphMostly Cloudy
3:55 PM83.8 °F71.8 °F67 %29.84 in10.0 miENE (70°)15.0 mphPartly Cloudy
4:55 PM82.6 °F71.8 °F70 %29.83 in10.0 miEast (80°)13.8 mphScattered Clouds
5:16 PM82.4 °F73.4 °F74 %29.83 in10.0 miEast (80°)15.0 mphMostly Cloudy
5:21 PM82.4 °F73.4 °F74 %29.83 in10.0 miEast (80°)15.0 mphScattered Clouds
5:55 PM80.4 °F71.4 °F74 %29.84 in10.0 miENE (70°)15.0 mphScattered Clouds
6:13 PM80.6 °F73.4 °F79 %29.84 in10.0 miENE (60°)13.8 mphMostly Cloudy
6:23 PM80.6 °F73.4 °F79 %29.84 in10.0 miENE (70°)15.0 mphScattered Clouds
6:33 PM80.6 °F73.4 °F79 %29.85 in10.0 miENE (70°)13.8 mphMostly Cloudy
6:36 PM80.6 °F73.4 °F79 %29.85 in10.0 miENE (70°)12.7 mphScattered Clouds
6:52 PM80.6 °F73.4 °F79 %29.85 in10.0 miENE (60°)11.5 mphMostly Cloudy
6:55 PM79.7 °F72.3 °F78 %29.85 in10.0 miENE (60°)12.7 mphMostly Cloudy
7:28 PM80.6 °F73.4 °F79 %29.86 in10.0 miENE (60°)16.1 mphMostly Cloudy
7:29 PM80.6 °F73.4 °F79 %29.86 in10.0 miENE (60°)16.1 mphMostly Cloudy
7:41 PM80.6 °F73.4 °F79 %29.86 in10.0 miENE (60°)13.8 mphMostly Cloudy
7:51 PM80.6 °F75.2 °F84 %29.86 in10.0 miENE (60°)19.6 mph23.0 mphMostly Cloudy
7:55 PM79.5 °F74.5 °F84 %29.86 in10.0 miENE (60°)18.4 mphMostly Cloudy
7:59 PM78.8 °F75.2 °F89 %29.87 in10.0 miENE (60°)15.0 mphMostly Cloudy
8:55 PM79.3 °F73.8 °F83 %29.87 in10.0 miENE (70°)15.0 mphScattered Clouds
9:17 PM78.8 °F71.6 °F78 %29.88 in10.0 miENE (70°)15.0 mphMostly Cloudy
9:23 PM78.8 °F71.6 °F78 %29.88 in10.0 miENE (70°)15.0 mphScattered Clouds
9:36 PM78.8 °F73.4 °F83 %29.89 in10.0 miENE (60°)15.0 mphMostly Cloudy
9:38 PM78.8 °F73.4 °F83 %29.89 in10.0 miENE (60°)16.1 mphScattered Clouds
9:39 PM78.8 °F73.4 °F83 %29.89 in10.0 miENE (60°)16.1 mphMostly Cloudy
9:52 PM78.8 °F73.4 °F83 %29.89 in10.0 miENE (60°)16.1 mphMostly Cloudy
9:55 PM79.3 °F74.1 °F84 %29.90 in10.0 miENE (60°)16.1 mphMostly Cloudy
10:55 PM78.4 °F73.8 °F85 %29.89 in10.0 miENE (70°)11.5 mphMostly Cloudy
11:38 PM78.8 °F73.4 °F83 %29.88 in9.0 miENE (70°)13.8 mphRainLight Rain
11:47 PM78.8 °F73.4 °F83 %29.87 in9.0 miENE (70°)12.7 mphRainLight Rain
11:48 PM78.8 °F73.4 °F83 %29.87 in10.0 miENE (70°)13.8 mphMostly Cloudy
11:52 PM77.0 °F75.2 °F94 %29.87 in10.0 miENE (70°)11.5 mphMostly Cloudy
11:55 PM77.7 °F74.8 °F91 %29.87 in10.0 miENE (70°)10.4 mph0.00 inMostly Cloudy
11:56 PM77.0 °F75.2 °F94 %29.87 in10.0 miENE (70°)10.4 mphMostly Cloudy
Hourly data recorded from PGUA, located miles away from Tamuning, Guam







STORIES FROM OUR PARTNERS